Flag for Germany Weather past 2 weeks in Stendal, Saxony-Anhalt, Germany

Now
67 °F

Passing clouds.


Feels Like: 67 °F
Forecast: 49 / 63 °F
Wind: 2 mph from Southwest

Location: Magdeburg

Current Time: Sep 2, 2015 at 7:16:59 PM

Latest Report: Sep 2, 2015 at 7:00 PM


Visibility: 37 mi

Pressure: 29.98 "Hg

Humidity: 51%

Dew point: 49 °F

Location of StendalLocation

Historic Weather in Stendal — Graph

°F

Stendal temperature yesterday

Maximum temperature yesterday: 75 °F (at 12:00 PM)
Minimum temperature yesterday: 60 °F (at 11:00 PM)
Average temperature yesterday: 68 °F

Past Weeks' High & Low Weather Summary

 TemperatureHumidityPressure
High91 °F (Aug 31, 6:00 PM)100% (Aug 20, 5:00 AM)30.30 "Hg (Aug 20, 5:00 AM)
Low51 °F (Aug 23, 7:00 AM)30% (Aug 22, 4:00 PM)29.66 "Hg (Aug 24, 7:00 PM)
Average66 °F74%30.01 "Hg
* Reported Aug 18 6:00 PM — Sep 2 6:00 PM, Stendal, Weather by CustomWeather, © 2015

Note: Actual official high and low records may vary slightly from our data, if they occured in-between our weather recording intervals... More about our weather records

Advertising

Stendal weather history for previous 24 hours

 ConditionsComfort  
Time TempWeatherWind HumidityBarometerVisibility
6:00 PM
Wed, Sep 2
68 °FScattered clouds.2 mph49%29.98 "Hg37 mi
4:00 PM67 °FScattered clouds.3 mph48%29.99 "Hg37 mi
3:00 PM67 °FPartly sunny.5 mph52%30.00 "Hg37 mi
2:00 PM65 °FScattered clouds.5 mph55%30.01 "Hg37 mi
1:00 PM63 °FScattered clouds.3 mph59%30.02 "Hg37 mi
12:00 PM62 °FScattered clouds.5 mph61%30.03 "Hg31 mi
11:00 AM62 °FScattered clouds.6 mph67%30.02 "Hg22 mi
10:00 AM59 °FPassing clouds.5 mph72%30.02 "Hg19 mi
9:00 AM58 °FPassing clouds.3 mph79%30.01 "Hg19 mi
8:00 AM55 °FPassing clouds.2 mph89%30.01 "Hg19 mi
7:00 AM53 °FPassing clouds.1 mph95%30.00 "Hg12 mi
6:00 AM54 °FPassing clouds.2 mph94%29.99 "Hg11 mi
5:00 AM54 °FLight fog.1 mph96%29.99 "Hg6 mi
4:00 AM55 °FPassing clouds.1 mph94%29.98 "Hg7 mi
3:00 AM56 °FOvercast.2 mph93%29.98 "Hg9 mi
2:00 AM57 °FOvercast.2 mph91%29.97 "Hg13 mi
1:00 AM58 °FOvercast.2 mph91%29.96 "Hg11 mi
11:00 PM
Tue, Sep 1
60 °FOvercast.3 mph89%29.93 "Hg11 mi
10:00 PM60 °FOvercast.3 mph90%29.92 "Hg16 mi
9:00 PM61 °FOvercast.3 mph91%29.89 "Hg31 mi
8:00 PM61 °FOvercast.2 mph93%29.86 "Hg31 mi
7:00 PM61 °FLight rain. Overcast.2 mph93%29.85 "Hg25 mi
Weather by CustomWeather, © 2015

See weather overviewHow to use our weather pages